Waarnemingen

Advertentie
Mijn weer
Semmerzake, België (6428): temperatuur & dauwpunt: 23.05.2020 22:00:00 - 29.05.2020 22:00:00 (CEST)Semmerzake, België (6428): windsnelheid & windstoten: 23.05.2020 22:00:00 - 29.05.2020 22:00:00 (CEST)Semmerzake, België (6428): windrichting: 23.05.2020 22:00:00 - 29.05.2020 22:00:00 (CEST)Semmerzake, België (6428): luchtdruk: 23.05.2020 22:00:00 - 29.05.2020 22:00:00 (CEST)Semmerzake, België (6428): zicht: 23.05.2020 22:00:00 - 29.05.2020 22:00:00 (CEST)
Datum & Tijd tt [°C] td [°C] ff [km/u] ff [kn] fx [km/u] fx [kn] dd ppp [hPa] vv [km]
29.05.2020 22:00:00 17,2 8,3 11 6 22 12 N 1023,5 20
29.05.2020 21:00:00 18,8 7,7 14 8 25 14 N 1023,3 20
29.05.2020 20:00:00 21,1 4,4 14 8 - - N 1023,3 20
29.05.2020 19:00:00 22,0 3,6 14 8 29 16 N 1023,7 19
29.05.2020 18:00:00 22,6 3,5 14 8 25 14 NO 1024,2 20
29.05.2020 17:00:00 22,8 3,3 7 4 - - NO 1024,7 20
29.05.2020 16:00:00 21,7 1,7 14 8 29 16 NO 1025,4 19
29.05.2020 15:00:00 21,3 2,6 14 8 25 14 O 1026,0 20
29.05.2020 14:00:00 21,3 3,2 11 6 - - NO 1027,0 20
29.05.2020 13:00:00 19,8 4,8 14 8 25 14 O 1027,7 17
29.05.2020 12:00:00 19,0 4,8 11 6 25 14 ONO 1028,2 20
29.05.2020 11:00:00 18,4 7,2 11 6 - - NO 1028,5 17
29.05.2020 10:00:00 15,5 6,3 7 4 18 10 ONO 1028,9 20
29.05.2020 09:00:00 13,5 5,8 7 4 18 10 O 1029,0 18
29.05.2020 08:00:00 11,5 5,4 11 6 - - O 1029,0 19
29.05.2020 07:00:00 10,3 5,1 11 6 14 8 NO 1029,5 19
29.05.2020 06:00:00 9,5 4,6 4 2 14 8 N 1029,4 20
29.05.2020 05:00:00 9,6 4,2 7 4 - - NO 1029,4 20
29.05.2020 04:00:00 10,9 4,3 11 6 18 10 NO 1029,5 20
29.05.2020 03:00:00 10,6 4,9 7 4 14 8 NO 1030,0 20
29.05.2020 02:00:00 12,0 5,4 7 4 - - NO 1030,0 20
29.05.2020 01:00:00 13,3 6,6 11 6 25 14 NO 1030,0 20
29.05.2020 00:00:00 15,0 7,1 14 8 25 14 NO 1030,0 20
28.05.2020 23:00:00 15,6 7,3 11 6 - - NO 1029,9 20
28.05.2020 22:00:00 16,9 7,5 14 8 29 16 NNO 1029,9 20
28.05.2020 21:00:00 18,5 6,6 11 6 25 14 NNO 1029,5 20
28.05.2020 20:00:00 20,2 3,5 14 8 - - ONO 1029,5 20
28.05.2020 19:00:00 21,2 3,4 14 8 32 18 ONO 1029,9 19
28.05.2020 18:00:00 21,0 1,8 18 10 32 18 ONO 1030,4 20
28.05.2020 17:00:00 21,7 3,5 18 10 - - NO 1030,9 19
28.05.2020 16:00:00 20,9 3,1 14 8 32 18 ONO 1031,5 18
28.05.2020 15:00:00 20,6 3,6 18 10 32 18 NO 1032,0 19
28.05.2020 14:00:00 19,8 4,4 14 8 - - ONO 1032,7 19
28.05.2020 13:00:00 18,5 3,1 22 12 32 18 NO 1033,2 20
28.05.2020 12:00:00 17,2 3,1 18 10 32 18 NO 1033,7 20
28.05.2020 11:00:00 16,3 3,8 18 10 - - NO 1034,2 19
28.05.2020 10:00:00 14,5 3,9 18 10 36 19 ONO 1034,5 20
28.05.2020 09:00:00 13,5 4,3 14 8 29 16 ONO 1034,5 18
28.05.2020 08:00:00 11,5 5,3 14 8 - - ONO 1034,4 20
28.05.2020 07:00:00 10,0 5,3 7 4 14 8 NO 1034,5 19
28.05.2020 06:00:00 9,1 5,3 11 6 18 10 NO 1034,2 20
28.05.2020 05:00:00 10,1 6,7 11 6 - - NO 1034,0 20
28.05.2020 04:00:00 11,1 9,0 11 6 18 10 NO 1034,0 15
28.05.2020 03:00:00 10,0 9,1 7 4 11 6 N 1034,0 5
28.05.2020 02:00:00 10,4 8,9 7 4 - - N 1034,4 9
28.05.2020 01:00:00 10,6 8,7 11 6 14 8 N 1034,5 12
28.05.2020 00:00:00 11,4 8,5 11 6 22 12 N 1034,5 19
27.05.2020 23:00:00 12,8 8,5 11 6 - - N 1034,2 20
27.05.2020 22:00:00 14,2 7,3 14 8 25 14 N 1034,2 20
27.05.2020 21:00:00 16,7 5,1 18 10 32 18 N 1034,0 20
27.05.2020 20:00:00 18,1 7,4 22 12 - - N 1033,7 20
27.05.2020 19:00:00 19,9 7,4 18 10 36 19 N 1033,5 20
27.05.2020 18:00:00 20,8 2,8 22 12 36 19 NNO 1033,5 20
27.05.2020 17:00:00 21,1 5,3 25 14 - - N 1033,9 17
27.05.2020 16:00:00 21,3 5,0 22 12 40 21 N 1033,9 20
27.05.2020 15:00:00 21,7 7,1 18 10 32 18 N 1034,0 20
27.05.2020 14:00:00 22,1 9,2 18 10 - - N 1034,0 19
27.05.2020 13:00:00 21,2 7,3 14 8 29 16 N 1034,4 20
27.05.2020 12:00:00 20,5 6,9 14 8 22 12 NNW 1034,5 18
27.05.2020 11:00:00 19,0 4,9 11 6 - - NNO 1034,7 20
27.05.2020 10:00:00 17,3 8,3 11 6 14 8 N 1034,7 18
27.05.2020 09:00:00 15,8 9,9 11 6 14 8 N 1034,9 15
27.05.2020 08:00:00 13,7 10,4 7 4 - - N 1035,0 12
27.05.2020 07:00:00 12,0 8,8 7 4 11 6 NNW 1034,9 13
27.05.2020 06:00:00 10,5 7,6 4 2 4 2 N 1034,7 15
27.05.2020 05:00:00 10,8 7,5 4 2 - - N 1034,4 17
27.05.2020 04:00:00 11,1 7,9 7 4 7 4 NNW 1034,5 18
27.05.2020 03:00:00 11,5 7,9 4 2 4 2 N 1034,7 20
27.05.2020 02:00:00 13,0 7,9 4 2 - - N 1034,9 20
27.05.2020 01:00:00 13,6 7,9 4 2 7 4 N 1035,0 20
27.05.2020 00:00:00 14,8 8,1 4 2 11 6 N 1035,0 20
26.05.2020 23:00:00 16,4 7,3 7 4 - - N 1035,0 20
26.05.2020 22:00:00 17,8 6,6 7 4 18 10 N 1034,7 20
26.05.2020 21:00:00 20,1 7,3 11 6 22 12 N 1034,4 20
26.05.2020 20:00:00 21,3 6,5 14 8 - - N 1034,2 20
26.05.2020 19:00:00 23,0 6,1 14 8 25 14 N 1034,0 20
26.05.2020 18:00:00 23,9 5,9 14 8 25 14 N 1034,0 20
26.05.2020 17:00:00 24,4 6,5 14 8 - - N 1034,2 19
26.05.2020 16:00:00 24,0 7,3 11 6 25 14 N 1034,4 20
26.05.2020 15:00:00 23,6 7,6 11 6 25 14 N 1034,5 18
26.05.2020 14:00:00 23,2 8,3 11 6 - - N 1035,0 18
26.05.2020 13:00:00 22,4 8,9 7 4 14 8 O 1035,4 20
26.05.2020 12:00:00 21,6 8,3 4 2 11 6 N 1035,5 20
26.05.2020 11:00:00 19,9 8,9 4 2 - - N 1035,7 19
26.05.2020 10:00:00 18,0 10,4 4 2 7 4 N 1035,9 18
26.05.2020 09:00:00 15,9 10,3 4 2 7 4 N 1035,7 20
26.05.2020 08:00:00 13,5 10,5 0 0 - - N 1035,7 16
26.05.2020 07:00:00 9,5 8,6 4 2 4 2 N 1035,5 10
26.05.2020 06:00:00 8,8 8,1 4 2 4 2 N 1035,2 10
26.05.2020 05:00:00 9,1 8,2 4 2 - - N 1035,2 4,2
26.05.2020 04:00:00 9,9 8,5 4 2 4 2 N 1035,2 14
26.05.2020 03:00:00 10,6 8,8 4 2 7 4 N 1035,2 14
26.05.2020 02:00:00 12,3 8,8 4 2 - - N 1034,9 18
26.05.2020 01:00:00 12,3 8,6 4 2 7 4 N 1034,9 18
26.05.2020 00:00:00 13,5 9,0 4 2 11 6 N 1035,0 20
25.05.2020 23:00:00 14,4 9,1 7 4 - - NO 1035,0 20
25.05.2020 22:00:00 15,8 8,9 7 4 14 8 N 1035,0 20
25.05.2020 21:00:00 17,8 8,8 11 6 22 12 N 1034,7 19
25.05.2020 20:00:00 19,5 8,5 11 6 - - NNO 1034,2 20
25.05.2020 19:00:00 20,5 8,6 14 8 25 14 N 1034,0 20
25.05.2020 18:00:00 21,1 8,6 14 8 25 14 N 1034,0 20
25.05.2020 17:00:00 22,1 8,7 14 8 - - N 1033,7 20
25.05.2020 16:00:00 22,6 8,5 11 6 22 12 N 1034,0 18
25.05.2020 15:00:00 20,8 7,9 7 4 22 12 N 1034,4 20
25.05.2020 14:00:00 20,6 8,3 7 4 - - NO 1034,7 20
25.05.2020 13:00:00 19,9 8,2 11 6 22 12 NNO 1034,9 18
25.05.2020 12:00:00 19,1 8,7 11 6 18 10 NO 1034,7 20
25.05.2020 11:00:00 18,1 9,3 7 4 - - NO 1035,0 16
25.05.2020 10:00:00 16,6 9,6 11 6 18 10 N 1035,0 20
25.05.2020 09:00:00 15,7 10,7 7 4 14 8 NNO 1034,7 18
25.05.2020 08:00:00 13,8 10,9 4 2 - - N 1034,5 11
25.05.2020 07:00:00 12,6 10,3 4 2 4 2 N 1034,0 11
25.05.2020 06:00:00 12,3 10,2 4 2 4 2 N 1033,9 13
25.05.2020 05:00:00 12,3 10,2 4 2 - - N 1033,7 14
25.05.2020 04:00:00 12,0 9,3 0 0 0 0 N 1033,5 15
25.05.2020 03:00:00 12,8 9,1 4 2 7 4 N 1033,2 15
25.05.2020 02:00:00 14,6 9,8 4 2 - - N 1033,2 17
25.05.2020 01:00:00 14,8 10,0 4 2 11 6 N 1033,0 16
25.05.2020 00:00:00 15,3 10,0 4 2 11 6 N 1032,9 16
24.05.2020 23:00:00 16,1 9,8 4 2 - - N 1032,7 20
24.05.2020 22:00:00 16,3 9,0 4 2 11 6 N 1032,2 20
24.05.2020 21:00:00 16,7 8,8 7 4 14 8 NW 1032,0 20
24.05.2020 20:00:00 17,1 8,6 7 4 - - NW 1031,7 20
24.05.2020 19:00:00 17,5 8,0 14 8 25 14 NW 1031,5 20
24.05.2020 18:00:00 19,2 7,9 11 6 29 16 WNW 1031,0 20
24.05.2020 17:00:00 18,4 8,0 11 6 - - WNW 1031,0 20
24.05.2020 16:00:00 17,5 8,2 11 6 25 14 WNW 1031,0 19
24.05.2020 15:00:00 17,2 9,1 7 4 29 16 WNW 1030,7 19
24.05.2020 14:00:00 16,5 8,5 14 8 - - W 1030,2 20
24.05.2020 13:00:00 16,7 8,3 14 8 29 16 WNW 1030,0 20
24.05.2020 12:00:00 15,4 8,0 14 8 29 16 W 1030,0 20
24.05.2020 11:00:00 14,6 8,2 14 8 - - WZW 1030,0 17
24.05.2020 10:00:00 13,4 8,1 14 8 29 16 WZW 1030,0 17
24.05.2020 09:00:00 12,7 7,7 14 8 36 19 WZW 1029,5 18
24.05.2020 08:00:00 12,0 7,7 18 10 - - WZW 1029,0 13
24.05.2020 07:00:00 11,1 8,1 14 8 25 14 WZW 1028,5 15
24.05.2020 06:00:00 10,4 7,9 11 6 25 14 WZW 1028,0 13
24.05.2020 05:00:00 10,6 8,4 14 8 - - ZW 1027,7 10
24.05.2020 04:00:00 11,1 8,4 14 8 25 14 WZW 1027,5 12
24.05.2020 03:00:00 11,0 8,2 14 8 25 14 WZW 1027,7 11
24.05.2020 02:00:00 11,3 8,2 18 10 - - WZW 1027,5 13
24.05.2020 01:00:00 11,6 7,9 14 8 32 18 ZW 1027,4 13
24.05.2020 00:00:00 12,3 7,3 14 8 36 19 ZW 1027,2 16
23.05.2020 23:00:00 13,3 6,7 22 12 - - WZW 1027,0 17
23.05.2020 22:00:00 13,8 5,7 22 12 40 21 WZW 1026,5 19

tt = temperatuur
td = dauwpunt
ff = windsnelheid
fx = windstoten
dd = windrichting
ppp = luchtdruk
vv = zicht

Weerstations in de omgeving